[[{"header":{"parameterUnit":"m.s-1","parameterCategory":2,"la1":30.2992,"la2":30.254,"lo1":-89.0895,"lo2":-89.0443,"dy":0.0025,"dx":0.0025,"nx":19,"ny":19,"refTime":"2026-04-21T09:00:00:Z","depth":"0","parameterNumber":2,"parameterNumberName":"U-component_of_CURRENTS"},"data":[0,0,0,0.3082,0.3082,0.3075,0.3075,0.313,0.3131,0,0,0,0,0,0,0,0,0,0,0,0.3085,0.3085,0.3082,0.3082,0.3075,0.3075,0.313,0.3131,0,0,0,0,0,0,0,0,0,0,0,0.3085,0.3085,0.3086,0.3082,0.3075,0.3075,0.313,0.3116,0,0,0,0,0,0,0,0,0,0,0.3114,0.3107,0.3085,0.3086,0.3082,0.3075,0.3075,0.3115,0.3117,0.3156,0,0.3164,0,0.3157,0.3138,0.3138,0,0,0,0.3069,0.3105,0.3112,0.3086,0.3082,0.3075,0.3074,0.3115,0.3118,0.316,0.3165,0.3167,0.3158,0.3138,0.3139,0.3345,0.3346,0,0,0.3069,0.3075,0.3109,0.3114,0.3095,0.3075,0.3074,0.3116,0.3123,0.3165,0.3168,0.3159,0.3139,0.314,0.3343,0.3345,0,0,0,0.3079,0.3076,0.3079,0.3112,0.311,0.3075,0.3074,0.312,0.3124,0.3168,0.316,0.314,0.3141,0.3342,0.3344,0.3473,0,0,0,0.3079,0.3082,0.308,0.3081,0.3109,0.3105,0.3078,0.3121,0.3125,0.316,0.314,0.3142,0.334,0.3343,0.3466,0.349,0,0,0,0.3083,0.3082,0.3087,0.3082,0.3086,0.3104,0.3109,0.3121,0.3122,0.3138,0.3142,0.3339,0.3342,0.3459,0.3481,0.3535,0,0,0,0.308,0.31,0.3088,0.312,0.3086,0.3141,0.3108,0.3158,0.3183,0.314,0.334,0.3344,0.3457,0.3475,0.353,0.3433,0.3452,0,0,0.3103,0.3102,0.3125,0.3115,0.3174,0.314,0.3234,0.3254,0.3253,0.3324,0.3328,0.3468,0.348,0.3534,0.3645,0.3656,0,0,0,0.3132,0.3144,0.3162,0.3194,0.3229,0.329,0.3299,0.3354,0.3455,0.3286,0.3507,0.351,0.354,0.3472,0.3483,0.3287,0.3361,0.336,0.336,0.3154,0.3182,0.323,0.3273,0.3328,0.3411,0.3487,0.3567,0.3548,0.365,0.3646,0.3812,0.3746,0.3751,0.3554,0.3696,0.3697,0.3697,0.3698,0.3187,0.3216,0.3279,0.3325,0.3422,0.3512,0.3682,0.3725,0.3871,0.3833,0.3856,0.3649,0.377,0.3555,0.3707,0.3705,0.3704,0.3703,0.3702,0.3184,0.3207,0.3233,0.3329,0.3466,0.3583,0.3746,0.3872,0.3961,0.4025,0.3909,0.3905,0.3683,0.4032,0.4033,0.4033,0.4034,0.4034,0.4034,0.3168,0.3204,0.3238,0.3347,0.3422,0.3573,0.3803,0.3899,0.4002,0.4027,0.4026,0.3723,0.3913,0.3861,0.4041,0.4039,0.4039,0.4038,0.4038,0.3168,0.3184,0.3225,0.3276,0.3434,0.3506,0.3729,0.3868,0.3995,0.4009,0.3779,0.4022,0.3956,0.3944,0.3894,0.4071,0.4071,0.4071,0.4071,0.3169,0.3182,0.322,0.3275,0.3381,0.3478,0.3497,0.3608,0.3682,0.364,0.3686,0.3571,0.3578,0.3482,0.3482,0.3419,0.3472,0.3471,0.347,0.3184,0.3191,0.3204,0.3242,0.3347,0.3382,0.3277,0.3149,0.3265,0.3428,0.3442,0.3467,0.3281,0.3307,0.3138,0.3153,0.3043,0,0]},{"header":{"parameterUnit":"m.s-1","parameterCategory":2,"la1":30.2992,"la2":30.254,"lo1":-89.0895,"lo2":-89.0443,"dy":0.0025,"dx":0.0025,"nx":19,"ny":19,"refTime":"2026-04-21T09:00:00:Z","depth":"0","parameterNumber":3,"parameterNumberName":"V-component_of_CURRENTS"},"data":[0,0,0,0.0294,0.0294,0.0291,0.0291,0.0278,0.0278,0,0,0,0,0,0,0,0,0,0,0,0.0298,0.0299,0.0294,0.0294,0.0291,0.0291,0.0278,0.0278,0,0,0,0,0,0,0,0,0,0,0,0.0298,0.0299,0.0299,0.0294,0.0291,0.0291,0.0278,0.0282,0,0,0,0,0,0,0,0,0,0,0.0286,0.0287,0.0298,0.0299,0.0294,0.0291,0.0291,0.0282,0.0281,0.0279,0,0.0284,0,0.0281,0.0277,0.0277,0,0,0,0.029,0.0288,0.0292,0.0299,0.0295,0.0291,0.0291,0.0282,0.0281,0.0278,0.0284,0.0283,0.0281,0.0277,0.0277,0.0329,0.033,0,0,0.029,0.029,0.0293,0.0292,0.0301,0.0291,0.0291,0.0281,0.0281,0.0284,0.0283,0.0281,0.0277,0.0277,0.0328,0.0329,0,0,0,0.0294,0.0291,0.0295,0.0293,0.0293,0.0291,0.0291,0.0281,0.0285,0.0283,0.0281,0.0277,0.0277,0.0328,0.0329,0.05,0,0,0,0.0294,0.0293,0.0296,0.0295,0.0294,0.0287,0.0291,0.0285,0.0284,0.0281,0.0277,0.0277,0.0327,0.0328,0.0494,0.0608,0,0,0,0.0297,0.0293,0.0296,0.0295,0.0296,0.0287,0.029,0.0285,0.0283,0.0277,0.0277,0.0327,0.0328,0.0488,0.0597,0.0691,0,0,0,0.0292,0.0319,0.0297,0.0332,0.0296,0.0338,0.029,0.0309,0.0312,0.0277,0.0327,0.0329,0.0487,0.059,0.0683,0.0784,0.0825,0,0,0.0329,0.0324,0.0348,0.0328,0.0394,0.0337,0.0411,0.0386,0.0332,0.0327,0.0328,0.0496,0.0596,0.0689,0.0872,0.0911,0,0,0,0.0363,0.0387,0.0401,0.0431,0.0441,0.0491,0.0445,0.0455,0.0475,0.034,0.0478,0.0537,0.059,0.0634,0.0665,0.0489,0.0336,0.0336,0.0335,0.0419,0.044,0.0508,0.054,0.0571,0.0594,0.0651,0.0651,0.0559,0.0601,0.0662,0.0836,0.0884,0.0909,0.0725,0.0623,0.0624,0.0624,0.0625,0.0519,0.0579,0.0612,0.0685,0.0732,0.0794,0.0863,0.0846,0.0936,0.0818,0.086,0.0796,0.0953,0.0744,0.0635,0.0633,0.0632,0.0631,0.063,0.0578,0.0619,0.0654,0.0781,0.0909,0.0959,0.117,0.1167,0.1114,0.1184,0.1174,0.1171,0.1,0.1175,0.1176,0.1177,0.1177,0.1178,0.1179,0.0634,0.068,0.0782,0.0906,0.102,0.1201,0.137,0.1468,0.1485,0.1401,0.1399,0.1049,0.1004,0.0997,0.1193,0.1191,0.1189,0.1187,0.1186,0.074,0.0749,0.0907,0.1017,0.1294,0.1554,0.1681,0.1869,0.1892,0.1907,0.1431,0.1501,0.1461,0.1434,0.1436,0.1735,0.1735,0.1735,0.1735,0.0809,0.0827,0.1042,0.1241,0.1508,0.1727,0.2095,0.219,0.1933,0.1715,0.1554,0.141,0.1396,0.1339,0.1314,0.1307,0.1566,0.1565,0.1565,0.0903,0.095,0.1118,0.1296,0.1605,0.1928,0.2276,0.2372,0.188,0.1531,0.1294,0.1301,0.1052,0.1044,0.0912,0.0891,0.0863,0,0]}],[{"header":{"parameterUnit":"m.s-1","parameterCategory":2,"la1":30.2992,"la2":30.254,"lo1":-89.0895,"lo2":-89.0443,"dy":0.0025,"dx":0.0025,"nx":19,"ny":19,"refTime":"2026-04-21T09:00:00:Z","depth":"2","parameterNumber":2,"parameterNumberName":"U-component_of_CURRENTS"},"data":[0,0,0,0.263,0.2631,0.2685,0.2685,0.2792,0.2793,0,0,0,0,0,0,0,0,0,0,0,0.2614,0.2615,0.2629,0.2631,0.2685,0.2685,0.2792,0.2793,0,0,0,0,0,0,0,0,0,0,0,0.2614,0.2615,0.2615,0.2631,0.2685,0.2685,0.2792,0.2741,0,0,0,0,0,0,0,0,0,0,0.2684,0.2661,0.2614,0.2615,0.2631,0.2685,0.2685,0.2738,0.2744,0.2778,0,0.279,0,0.2795,0.2801,0.2801,0,0,0,0.2631,0.2656,0.2674,0.2615,0.2632,0.2685,0.2661,0.2742,0.2748,0.2786,0.2792,0.2795,0.2796,0.2802,0.2802,0.2958,0.2959,0,0,0.2628,0.2622,0.2669,0.2679,0.2653,0.2659,0.2662,0.2745,0.2754,0.2792,0.2798,0.2798,0.2803,0.2804,0.2958,0.2959,0,0,0,0.2619,0.262,0.2635,0.2674,0.2682,0.266,0.2664,0.275,0.2757,0.2799,0.2799,0.2803,0.2805,0.2957,0.2958,0.3099,0,0,0,0.2617,0.2615,0.2634,0.263,0.268,0.2711,0.2668,0.2751,0.276,0.2799,0.2803,0.2806,0.2956,0.2957,0.3094,0.3136,0,0,0,0.2611,0.2614,0.2622,0.263,0.2653,0.2709,0.272,0.2753,0.2761,0.2802,0.2806,0.2955,0.2957,0.3089,0.3127,0.3172,0,0,0,0.2599,0.2627,0.2623,0.2664,0.2653,0.2726,0.2719,0.2777,0.2816,0.2804,0.2956,0.2958,0.3087,0.3122,0.3167,0.2999,0.3008,0,0,0.2629,0.263,0.2657,0.2655,0.2715,0.2718,0.282,0.2862,0.2857,0.2929,0.2932,0.3096,0.3127,0.3171,0.311,0.3116,0,0,0,0.2664,0.2663,0.2687,0.2719,0.2778,0.2855,0.2884,0.295,0.3046,0.2889,0.3095,0.311,0.3133,0.3021,0.3027,0.2967,0.2967,0.2967,0.2966,0.263,0.2676,0.2721,0.2777,0.285,0.2956,0.3044,0.313,0.3122,0.3205,0.3226,0.3355,0.3239,0.324,0.3236,0.3236,0.3237,0.3237,0.3237,0.2658,0.2688,0.2755,0.282,0.2928,0.3041,0.3231,0.3278,0.3422,0.3392,0.3408,0.3177,0.3254,0.3249,0.3247,0.3245,0.3244,0.3243,0.3242,0.2623,0.2655,0.27,0.2822,0.2958,0.3109,0.3279,0.3415,0.3526,0.3574,0.3405,0.3399,0.342,0.358,0.358,0.3581,0.3581,0.3581,0.3582,0.2603,0.2652,0.2699,0.2821,0.2897,0.3056,0.3323,0.3428,0.3519,0.3526,0.3524,0.3469,0.3458,0.3438,0.3588,0.3587,0.3586,0.3586,0.3585,0.2574,0.2601,0.2662,0.2714,0.2853,0.2887,0.3158,0.3292,0.3435,0.3421,0.3481,0.3481,0.3406,0.3397,0.3374,0.3499,0.3499,0.3499,0.3499,0.2524,0.2557,0.2606,0.265,0.2713,0.2792,0.2793,0.289,0.3102,0.3148,0.3163,0.3042,0.3053,0.295,0.2952,0.2916,0.2923,0.2922,0.2921,0.2486,0.2516,0.2505,0.2558,0.2617,0.2619,0.249,0.2385,0.2575,0.2896,0.3042,0.3465,0.3322,0.3327,0.3191,0.3186,0.3137,0,0]},{"header":{"parameterUnit":"m.s-1","parameterCategory":2,"la1":30.2992,"la2":30.254,"lo1":-89.0895,"lo2":-89.0443,"dy":0.0025,"dx":0.0025,"nx":19,"ny":19,"refTime":"2026-04-21T09:00:00:Z","depth":"2","parameterNumber":3,"parameterNumberName":"V-component_of_CURRENTS"},"data":[0,0,0,0.0187,0.0187,0.0192,0.0192,0.0197,0.0198,0,0,0,0,0,0,0,0,0,0,0,0.0189,0.019,0.0187,0.0187,0.0192,0.0192,0.0197,0.0198,0,0,0,0,0,0,0,0,0,0,0,0.0189,0.019,0.019,0.0187,0.0192,0.0192,0.0197,0.0193,0,0,0,0,0,0,0,0,0,0,0.0189,0.0186,0.0189,0.019,0.0187,0.0192,0.0192,0.0193,0.0194,0.0196,0,0.0202,0,0.02,0.0198,0.0198,0,0,0,0.0185,0.0186,0.0193,0.019,0.0187,0.0192,0.0189,0.0193,0.0194,0.0197,0.0202,0.0202,0.02,0.0198,0.0198,0.0249,0.0249,0,0,0.0185,0.0183,0.0192,0.0193,0.0196,0.0189,0.0189,0.0194,0.0194,0.0202,0.0202,0.02,0.0198,0.0198,0.0248,0.0249,0,0,0,0.0186,0.0183,0.019,0.0193,0.0194,0.0189,0.0189,0.0193,0.0198,0.0202,0.02,0.0198,0.0198,0.0248,0.0249,0.0371,0,0,0,0.0185,0.0184,0.019,0.0188,0.0194,0.0192,0.0189,0.0197,0.0198,0.02,0.0198,0.0198,0.0247,0.0248,0.0366,0.0454,0,0,0,0.0188,0.0183,0.0188,0.0188,0.0191,0.0192,0.0196,0.0197,0.0196,0.0198,0.0199,0.0247,0.0248,0.0362,0.0446,0.0513,0,0,0,0.0181,0.0204,0.0188,0.0218,0.0191,0.0234,0.0196,0.0215,0.0222,0.0198,0.0247,0.0249,0.0361,0.0441,0.0507,0.054,0.0566,0,0,0.021,0.0207,0.0229,0.0215,0.0275,0.0233,0.0297,0.028,0.0239,0.0244,0.0245,0.0368,0.0445,0.0511,0.0606,0.0631,0,0,0,0.0239,0.026,0.0274,0.0303,0.0318,0.0362,0.0332,0.0333,0.0345,0.0248,0.0357,0.0403,0.044,0.0448,0.0468,0.0254,0.0254,0.0254,0.0254,0.0277,0.03,0.0357,0.0393,0.0427,0.0448,0.0486,0.048,0.0416,0.0439,0.0492,0.0619,0.0627,0.0642,0.0461,0.0462,0.0463,0.0463,0.0463,0.0358,0.0403,0.0441,0.0505,0.0548,0.0607,0.0654,0.0634,0.0689,0.0603,0.0632,0.0565,0.0672,0.0473,0.0471,0.0469,0.0469,0.0468,0.0467,0.0397,0.0428,0.0465,0.0577,0.0679,0.0731,0.0893,0.0877,0.0825,0.0868,0.0838,0.0836,0.0713,0.0865,0.0866,0.0866,0.0867,0.0867,0.0868,0.0429,0.0473,0.056,0.0666,0.0757,0.0907,0.1042,0.1105,0.1084,0.1002,0.1001,0.0754,0.0741,0.0735,0.0879,0.0877,0.0875,0.0874,0.0874,0.0496,0.0513,0.0652,0.0741,0.096,0.1173,0.1268,0.1379,0.1375,0.1354,0.1064,0.1056,0.1024,0.1006,0.1005,0.121,0.121,0.121,0.121,0.0532,0.0554,0.0744,0.0908,0.1119,0.1302,0.1561,0.1561,0.142,0.127,0.1267,0.1171,0.1156,0.1124,0.1103,0.11,0.1331,0.1331,0.1331,0.0589,0.0645,0.078,0.0943,0.1189,0.1463,0.1691,0.1658,0.1398,0.1333,0.1256,0.1225,0.1069,0.1052,0.0983,0.0957,0.0945,0,0]}],[{"header":{"parameterUnit":"m.s-1","parameterCategory":2,"la1":30.2992,"la2":30.254,"lo1":-89.0895,"lo2":-89.0443,"dy":0.0025,"dx":0.0025,"nx":19,"ny":19,"refTime":"2026-04-21T09:00:00:Z","depth":"4","parameterNumber":2,"parameterNumberName":"U-component_of_CURRENTS"},"data":[0,0,0,0.158,0.1583,0.1743,0.1744,0.1894,0.1895,0,0,0,0,0,0,0,0,0,0,0,0.1524,0.1526,0.1579,0.1583,0.1743,0.1744,0.1894,0.1895,0,0,0,0,0,0,0,0,0,0,0,0.1524,0.1525,0.1527,0.1584,0.1743,0.1744,0.1894,0.1787,0,0,0,0,0,0,0,0,0,0,0.1639,0.1605,0.1525,0.1527,0.1585,0.1743,0.1744,0.1782,0.1794,0.1806,0,0.1836,0,0.1868,0.1904,0.1905,0,0,0,0.1585,0.1596,0.1629,0.1527,0.1586,0.1742,0.1671,0.1789,0.1802,0.182,0.1838,0.1844,0.187,0.1905,0.1906,0.2028,0.2029,0,0,0.1576,0.1563,0.162,0.1637,0.1634,0.1666,0.1676,0.1797,0.1817,0.1839,0.1848,0.1873,0.1906,0.1907,0.2028,0.2029,0,0,0,0.155,0.1557,0.1589,0.163,0.1663,0.1671,0.1683,0.1812,0.1821,0.185,0.1875,0.1906,0.1908,0.2028,0.2028,0.2089,0,0,0,0.1544,0.1541,0.1584,0.1579,0.1661,0.175,0.1695,0.1812,0.1827,0.1874,0.1907,0.1909,0.2027,0.2028,0.2087,0.2111,0,0,0,0.1516,0.1538,0.1556,0.1578,0.1645,0.1749,0.1765,0.1817,0.1842,0.1905,0.191,0.2027,0.2028,0.2084,0.2107,0.218,0,0,0,0.1496,0.1515,0.1556,0.1589,0.1644,0.1719,0.1765,0.1849,0.1904,0.1907,0.2027,0.2028,0.2084,0.2105,0.2177,0.1885,0,0,0,0.1497,0.1515,0.153,0.157,0.1623,0.1696,0.1785,0.1887,0.1919,0.1983,0.1987,0.2088,0.2107,0.2179,0.194,0,0,0,0,0.1515,0.1526,0.155,0.1598,0.1662,0.1761,0.1854,0.1914,0.2024,0.1956,0.2089,0.2099,0.2143,0.1963,0.2033,0.2032,0.2032,0.2032,0.2032,0.1482,0.1516,0.155,0.1611,0.1674,0.1818,0.1914,0.2013,0.2038,0.2104,0.215,0.2246,0.2056,0.2151,0.2151,0.2152,0.2152,0.2152,0.2152,0.1469,0.1473,0.1554,0.1606,0.1716,0.1811,0.199,0.2068,0.2229,0.2206,0.2247,0.2039,0.2158,0.2157,0.2156,0.2155,0.2155,0.2154,0.2154,0.1419,0.1423,0.149,0.158,0.17,0.1845,0.1987,0.2149,0.2273,0.2348,0.2179,0.23,0.2296,0.2386,0.2386,0.2387,0.2387,0.2387,0.2388,0.133,0.1389,0.144,0.1556,0.162,0.1764,0.2018,0.212,0.2282,0.2219,0.2382,0.2325,0.2317,0.2309,0.2394,0.2393,0.2392,0.2392,0.2391,0.1239,0.1289,0.134,0.1406,0.1542,0.1615,0.1882,0.2025,0.2133,0.2143,0.2152,0.2162,0.212,0.2118,0.2101,0.2128,0.2125,0.2121,0,0.1166,0.1198,0.1243,0.1294,0.135,0.1513,0.1586,0.1747,0.1913,0.1843,0.2126,0.2129,0.2136,0.208,0.2073,0.2046,0,0,0,0.1118,0.1138,0.1131,0.1192,0.1234,0.1375,0.1589,0.1601,0.1878,0.1901,0.2036,0.2058,0.223,0.2415,0.2375,0.2366,0.2351,0,0]},{"header":{"parameterUnit":"m.s-1","parameterCategory":2,"la1":30.2992,"la2":30.254,"lo1":-89.0895,"lo2":-89.0443,"dy":0.0025,"dx":0.0025,"nx":19,"ny":19,"refTime":"2026-04-21T09:00:00:Z","depth":"4","parameterNumber":3,"parameterNumberName":"V-component_of_CURRENTS"},"data":[0,0,0,0.0179,0.0179,0.0192,0.0192,0.0222,0.0223,0,0,0,0,0,0,0,0,0,0,0,0.0179,0.0179,0.0179,0.0179,0.0192,0.0192,0.0222,0.0223,0,0,0,0,0,0,0,0,0,0,0,0.0179,0.0179,0.0179,0.0179,0.0192,0.0192,0.0222,0.0209,0,0,0,0,0,0,0,0,0,0,0.0195,0.0188,0.0179,0.0179,0.0179,0.0192,0.0192,0.0209,0.021,0.0221,0,0.0226,0,0.0224,0.0225,0.0225,0,0,0,0.018,0.0187,0.0194,0.0179,0.0179,0.0192,0.0186,0.0209,0.0211,0.0223,0.0226,0.0227,0.0224,0.0225,0.0226,0.0287,0.0287,0,0,0.0179,0.0177,0.0193,0.0196,0.0188,0.0186,0.0187,0.021,0.0212,0.0226,0.0228,0.0225,0.0226,0.0226,0.0287,0.0287,0,0,0,0.0177,0.0176,0.0183,0.0195,0.0195,0.0186,0.0187,0.0211,0.0215,0.0228,0.0225,0.0226,0.0226,0.0286,0.0287,0.0337,0,0,0,0.0176,0.0175,0.0183,0.0181,0.0195,0.02,0.0187,0.0213,0.0215,0.0225,0.0226,0.0227,0.0286,0.0287,0.0334,0.037,0,0,0,0.0177,0.0175,0.0179,0.0181,0.0186,0.0199,0.0204,0.0213,0.0214,0.0225,0.0227,0.0285,0.0286,0.0332,0.0366,0.038,0,0,0,0.0171,0.0189,0.0179,0.0206,0.0186,0.0231,0.0204,0.0232,0.0247,0.0226,0.0286,0.0287,0.0332,0.0363,0.0377,0.0389,0,0,0,0.0194,0.0192,0.0212,0.0203,0.0255,0.0229,0.0281,0.0282,0.0264,0.0278,0.0279,0.0335,0.0365,0.0379,0.0446,0,0,0,0,0.022,0.0237,0.0252,0.0278,0.0298,0.0323,0.032,0.0315,0.0324,0.0276,0.0341,0.0359,0.0366,0.0366,0.0292,0.0291,0.0291,0.0291,0.0291,0.0245,0.0268,0.0314,0.0347,0.0377,0.0392,0.0406,0.0398,0.0375,0.0383,0.0403,0.0456,0.046,0.04,0.04,0.04,0.0401,0.0401,0.0401,0.0299,0.0331,0.0367,0.042,0.0448,0.0491,0.0501,0.0481,0.0489,0.0457,0.046,0.0425,0.0406,0.0405,0.0404,0.0404,0.0403,0.0403,0.0403,0.0318,0.0339,0.0376,0.0459,0.0529,0.0562,0.0626,0.0598,0.0549,0.0557,0.0539,0.0491,0.0482,0.0551,0.0551,0.0551,0.0552,0.0552,0.0552,0.0321,0.0361,0.0424,0.051,0.058,0.0662,0.07,0.07,0.0642,0.0611,0.0573,0.0507,0.0502,0.049,0.0555,0.0555,0.0554,0.0554,0.0554,0.0351,0.0368,0.0468,0.054,0.0698,0.076,0.0798,0.0771,0.0759,0.0707,0.0627,0.0622,0.0604,0.0596,0.0587,0.0683,0.0684,0.0684,0,0.0366,0.0381,0.0521,0.0644,0.0769,0.0829,0.0859,0.0843,0.0747,0.0738,0.0732,0.0643,0.0638,0.0618,0.0612,0.0603,0,0,0,0.0394,0.0438,0.0536,0.066,0.081,0.085,0.0871,0.0853,0.0765,0.0746,0.0694,0.0692,0.0636,0.0566,0.0527,0.0521,0.05,0,0]}]]